EW1675 Clifton VA US current weather conditions

sailwx.info

Wind from 340 at 3 knots gusting 8

Air temperature -0.0° C
Dewpoint -12.9° C

Last reported at 2020-Jan-20 21:10 UTC.
Time now 2020-Jan-20 21:37 UTC

Location: N 38°49' W 077°25'.
View on Google Maps.

See reports from other nearby stations

  
Tides and Currents Weather Stations Pressure Air Temp Water Temp Dewpoint Dewpoint Depression Visibility Wind Speed Wind Dir Waves Ship Positions
date/time (UTC)wind fromknots sea level pressurealtimeterstation pressurevisibilityair tempwater tempwave heightnotes
2020-Jan-20 21:10 340 3 gusting 8 -0.0
2020-Jan-20 20:50 339 3 gusting 12 0.6
2020-Jan-20 20:40 329 2 gusting 10 0.6
2020-Jan-20 20:30 347 2 gusting 13 0.6
2020-Jan-20 20:20 331 3 gusting 8 0.6
2020-Jan-20 20:00 344 3 gusting 11 0.6
2020-Jan-20 19:50 334 3 gusting 9 0.6
2020-Jan-20 19:30 001 4 gusting 10 0.6
2020-Jan-20 19:20 328 3 gusting 9 0.6
2020-Jan-20 19:10 317 2 gusting 9 0.6
2020-Jan-20 18:50 331 3 gusting 11 0.6
2020-Jan-20 18:30 356 4 gusting 12 -0.0
2020-Jan-20 18:20 353 5 gusting 13 -0.0
2020-Jan-20 18:10 334 3 gusting 11 -0.0
2020-Jan-20 17:40 322 3 gusting 11 -0.6
2020-Jan-20 17:30 008 3 gusting 10 -0.6
2020-Jan-20 17:10 340 4 gusting 10 -1.1
2020-Jan-20 17:00 358 4 gusting 10 -1.1
2020-Jan-20 16:40 015 4 gusting 10 -1.7
2020-Jan-20 16:30 338 3 gusting 11 -1.7
2020-Jan-20 16:20 315 3 gusting 9 -1.7
2020-Jan-20 16:10 323 5 gusting 14 -2.2
2020-Jan-20 16:00 333 3 gusting 11 -2.2
2020-Jan-20 15:50 349 3 gusting 9 -2.2
2020-Jan-20 15:40 321 3 gusting 11 -2.8
2020-Jan-20 15:30 353 5 gusting 17 -2.8
2020-Jan-20 15:20 003 4 gusting 13 -3.3
2020-Jan-20 14:50 352 3 gusting 8 -3.3
2020-Jan-20 14:40 336 3 gusting 12 -3.9
2020-Jan-20 14:20 005 3 gusting 13 -4.4
2020-Jan-20 13:40 331 3 gusting 11 -5.0
2020-Jan-20 13:30 323 3 gusting 10 -5.0
2020-Jan-20 13:00 337 2 gusting 9 -5.6
2020-Jan-20 12:50 325 3 gusting 8 -5.6
2020-Jan-20 12:40 344 2 gusting 6 -5.6
2020-Jan-20 12:30 325 2 gusting 12 -5.6
2020-Jan-20 12:20 348 3 gusting 9 -5.6
2020-Jan-20 12:00 332 2 gusting 7 -5.6
2020-Jan-20 11:50 340 2 gusting 6 -5.6
2020-Jan-20 11:40 326 2 gusting 9 -5.6
2020-Jan-20 11:30 346 4 gusting 11 -5.6
2020-Jan-20 11:20 341 3 gusting 8 -5.6
2020-Jan-20 10:40 317 2 gusting 7 -5.6
2020-Jan-20 10:30 336 1 gusting 9 -5.6
2020-Jan-20 10:20 328 2 gusting 9 -5.0
2020-Jan-20 10:10 342 2 gusting 12 -5.0
2020-Jan-20 10:00 357 2 gusting 8 -5.0
2020-Jan-20 09:50 348 2 gusting 10 -5.0
2020-Jan-20 09:30 312 2 gusting 12 -5.0
2020-Jan-20 09:20 335 2 gusting 8 -5.0
2020-Jan-20 09:10 313 2 gusting 11 -5.0
2020-Jan-20 09:00 340 2 gusting 9 -5.0
2020-Jan-20 08:50 317 2 gusting 9 -5.0
2020-Jan-20 08:40 341 1 gusting 8 -5.0
2020-Jan-20 08:20 336 1 gusting 6 -5.0
2020-Jan-20 08:10 307 1 gusting 4 -5.0
2020-Jan-20 08:00 301 1 gusting 4 -5.0
2020-Jan-20 07:40 311 1 gusting 9 -5.0
2020-Jan-20 07:30 333 2 gusting 6 -5.0
2020-Jan-20 07:10 325 1 gusting 7 -5.0
2020-Jan-20 07:00 312 2 gusting 7 -4.4
2020-Jan-20 06:30 322 2 gusting 8 -4.4
2020-Jan-20 06:20 313 1 gusting 7 -4.4
2020-Jan-20 06:10 324 1 gusting 6 -4.4
2020-Jan-20 05:50 292 1 gusting 5 -4.4
2020-Jan-20 05:40 318 1 gusting 8 -4.4
2020-Jan-20 05:30 316 1 gusting 8 -3.9
2020-Jan-20 05:10 336 2 gusting 8 -3.9
2020-Jan-20 05:00 318 2 gusting 6 -3.9
2020-Jan-20 04:50 347 2 gusting 8 -3.9
2020-Jan-20 04:40 343 2 gusting 12 -3.3
2020-Jan-20 04:30 305 2 gusting 10 -3.3
2020-Jan-20 04:10 312 2 gusting 7 -3.3
2020-Jan-20 04:00 309 2 gusting 8 -3.3
2020-Jan-20 03:50 345 1 gusting 6 -2.8
2020-Jan-20 03:40 322 2 gusting 8 -2.8
2020-Jan-20 03:30 341 2 gusting 9 -2.8
2020-Jan-20 03:00 332 2 gusting 11 -2.2
2020-Jan-20 02:50 312 3 gusting 14 -2.2
2020-Jan-20 02:40 307 4 gusting 12 -2.2
2020-Jan-20 02:20 333 2 gusting 9 -1.7
2020-Jan-20 02:00 347 2 gusting 10 -1.7
2020-Jan-20 01:50 323 2 gusting 9 -1.7
2020-Jan-20 01:40 330 2 gusting 11 -1.1
2020-Jan-20 01:20 306 2 gusting 9 -1.1
2020-Jan-20 01:10 336 3 gusting 10 -1.1
2020-Jan-20 01:00 320 2 gusting 10 -1.1
2020-Jan-20 00:50 312 3 gusting 12 -0.6
2020-Jan-20 00:40 321 4 gusting 11 -0.6
2020-Jan-20 00:00 334 3 gusting 10 -0.6
2020-Jan-19 23:50 318 2 gusting 9 -0.0
2020-Jan-19 23:30 332 2 gusting 13 -0.0
2020-Jan-19 23:10 317 2 gusting 8 -0.0
2020-Jan-19 23:00 303 1 gusting 6 -0.0
2020-Jan-19 22:40 326 2 gusting 8 0.6
2020-Jan-19 22:30 322 2 gusting 11 0.6
2020-Jan-19 22:20 332 1 gusting 6 0.6
2020-Jan-19 22:10 350 3 gusting 10 0.6
2020-Jan-19 22:00 330 2 gusting 7 0.6
2020-Jan-19 21:50 331 2 gusting 8 0.6
2020-Jan-19 21:40 313 4 gusting 13 1.1
2020-Jan-19 21:30 302 4 gusting 13 1.1
2020-Jan-19 21:20 312 3 gusting 7 1.7
2020-Jan-19 20:50 359 3 gusting 12 2.8
2020-Jan-19 20:40 329 3 gusting 10 2.8
2020-Jan-19 20:30 338 3 gusting 10 2.2
2020-Jan-19 20:20 327 3 gusting 11 2.2
2020-Jan-19 20:10 332 4 gusting 12 2.2
2020-Jan-19 20:00 325 5 gusting 13 2.8
2020-Jan-19 19:50 317 5 gusting 18 3.3
2020-Jan-19 19:40 328 5 gusting 15 3.3
2020-Jan-19 19:20 341 5 gusting 12 3.3
2020-Jan-19 19:10 313 5 gusting 18 3.3
2020-Jan-19 19:00 301 4 gusting 12 3.3
2020-Jan-19 18:40 332 3 gusting 14 3.9
2020-Jan-19 18:30 320 4 gusting 14 3.9
2020-Jan-19 18:20 348 4 gusting 11 3.9
2020-Jan-19 18:10 327 4 gusting 14 4.4
2020-Jan-19 18:00 352 6 gusting 15 3.9
2020-Jan-19 17:50 351 5 gusting 13 4.4
2020-Jan-19 17:40 318 6 gusting 15 5.0
2020-Jan-19 17:30 332 5 gusting 13 5.6
2020-Jan-19 17:20 327 5 gusting 19 5.6
2020-Jan-19 17:10 344 3 gusting 10 6.1
2020-Jan-19 16:50 320 5 gusting 13 5.6
2020-Jan-19 16:40 334 4 gusting 12 5.6
2020-Jan-19 16:20 334 5 gusting 11 5.6
2020-Jan-19 15:50 340 3 gusting 9 6.1
2020-Jan-19 15:30 332 3 gusting 12 5.6
2020-Jan-19 15:10 325 2 gusting 8 5.6
2020-Jan-19 14:50 317 3 gusting 8 5.0
2020-Jan-19 14:40 330 3 gusting 12 5.0
2020-Jan-19 14:30 329 2 gusting 10 4.4
2020-Jan-19 14:20 320 2 gusting 11 3.9
2020-Jan-19 14:10 344 3 gusting 8 3.9
2020-Jan-19 14:00 325 3 gusting 9 4.4
2020-Jan-19 13:50 335 4 gusting 13 4.4
2020-Jan-19 13:30 322 2 gusting 11 3.9
2020-Jan-19 13:20 331 2 gusting 8 3.9
2020-Jan-19 13:10 333 1 gusting 7 2.8
2020-Jan-19 13:00 318 0 gusting 2 2.2
2020-Jan-19 12:50 302 2.2
2020-Jan-19 12:40 302 0 gusting 1 2.2
2020-Jan-19 12:30 301 2.8
2020-Jan-19 12:00 2.8
2020-Jan-19 11:50 2.8
2020-Jan-19 11:40 3.3
2020-Jan-19 11:20 3.3
2020-Jan-19 11:10 3.9
2020-Jan-19 10:50 4.4
2020-Jan-19 10:30 058 4.4
2020-Jan-19 10:20 012 5.0
2020-Jan-19 10:00 043 5.0
2020-Jan-19 09:50 040 0 gusting 2 5.0
2020-Jan-19 09:40 031 5.0
2020-Jan-19 09:30 030 5.0
2020-Jan-19 09:20 016 0 gusting 1 5.0
2020-Jan-19 09:10 011 5.0
2020-Jan-19 09:00 011 5.0
2020-Jan-19 08:50 011 5.6
2020-Jan-19 08:30 268 0 gusting 1 5.6
2020-Jan-19 08:10 224 5.6
2020-Jan-19 08:00 215 5.6
2020-Jan-19 07:50 159 5.6
2020-Jan-19 07:30 165 2 gusting 8 5.6
2020-Jan-19 07:20 152 2 gusting 7 5.6
2020-Jan-19 07:10 153 2 gusting 6 5.6
2020-Jan-19 07:00 156 3 gusting 8 5.6
2020-Jan-19 06:50 146 2 gusting 7 5.6
2020-Jan-19 06:30 162 2 gusting 6 5.6
2020-Jan-19 06:20 164 3 gusting 8 5.6
2020-Jan-19 06:10 176 2 gusting 6 5.0
2020-Jan-19 06:00 155 2 gusting 10 5.0
2020-Jan-19 05:50 154 2 gusting 7 5.0
2020-Jan-19 05:40 157 2 gusting 7 5.0
2020-Jan-19 05:30 165 2 gusting 6 5.0
2020-Jan-19 05:10 162 2 gusting 9 5.0
2020-Jan-19 04:50 153 3 gusting 9 5.0
2020-Jan-19 04:40 156 3 gusting 9 4.4
2020-Jan-19 04:30 155 2 gusting 7 4.4
2020-Jan-19 04:10 150 4 gusting 9 4.4
2020-Jan-19 04:00 155 2 gusting 6 4.4
2020-Jan-19 03:50 155 3 gusting 9 4.4
2020-Jan-19 03:40 166 3 gusting 11 3.9
2020-Jan-19 03:30 160 2 gusting 10 3.9
2020-Jan-19 03:20 154 3 gusting 9 3.9
2020-Jan-19 03:10 156 2 gusting 6 3.3
2020-Jan-19 02:40 154 3 gusting 9 2.8
2020-Jan-19 02:30 169 3 gusting 7 2.8
2020-Jan-19 02:20 153 4 gusting 9 2.8
2020-Jan-19 02:10 156 4 gusting 11 2.8
2020-Jan-19 02:00 162 2 gusting 11 2.2
2020-Jan-19 01:50 168 2 gusting 8 2.2
2020-Jan-19 01:40 165 3 gusting 9 2.2
2020-Jan-19 01:30 157 2 gusting 7 2.2
2020-Jan-19 01:00 161 2 gusting 7 1.7
2020-Jan-19 00:50 157 2 gusting 7 1.1
2020-Jan-19 00:40 152 2 gusting 6 1.1
2020-Jan-19 00:30 160 2 gusting 6 1.1
2020-Jan-19 00:00 172 2 gusting 8 1.1
2020-Jan-18 23:50 162 1 gusting 6 1.1
2020-Jan-18 23:40 157 2 gusting 9 1.1
2020-Jan-18 23:30 133 3 gusting 8 0.6
2020-Jan-18 23:10 097 3 gusting 8 0.6
2020-Jan-18 23:00 097 3 gusting 8 0.6
2020-Jan-18 22:30 096 2 gusting 7 -0.0
2020-Jan-18 22:20 097 2 gusting 6 -0.0
2020-Jan-18 22:10 118 2 gusting 7 -0.0
2020-Jan-18 21:30 150 2 gusting 6 -0.0
2020-Jan-18 21:10 145 3 gusting 7 -0.0
2020-Jan-18 21:00 151 2 gusting 8 -0.0